Location: Carri�res
(48.9069°N, 2.1792°E)
Time: 11:33:54
(UTC+00:00)

BREEZE-M DEB (TANK) - Visible Passes

Search period start: 14 May 2021 00:00
Search period end: 24 May 2021 00:00
Orbit: 318 x 13916 km, 49.6° (Epoch: 13 May)

Date Brightness Start Highest point End Pass type
(mag) Time Alt. Az. Time Alt. Az. Time Alt. Az.
14 May 8.7 20:28:42 10° SSW 22:29:52 82° SE 23:14:57 10° ENE visible
15 May 7.4 02:01:53 10° WNW 03:33:05 77° SW 03:47:22 10° SE visible
15 May 9.0 18:03:15 10° S 19:44:40 57° ESE 20:45:07 10° ENE visible
15 May 8.2 22:50:17 10° WSW 00:56:24 89° N 01:22:10 10° E visible
16 May 8.7 20:07:10 10° SSW 22:06:47 81° SE 22:54:33 10° ENE visible
17 May 7.5 01:36:12 10° W 03:12:18 79° SW 03:27:23 10° SE visible
17 May 9.0 17:42:44 10° S 19:22:12 55° ESE 20:24:19 10° ENE visible
17 May 8.2 22:27:03 10° WSW 00:34:27 89° N 01:01:58 10° E visible
18 May 8.7 19:45:44 10° SSW 21:43:34 80° SE 22:34:05 10° ENE visible
19 May 7.6 01:10:36 10° W 02:51:25 80° SSW 03:07:22 10° SE visible
19 May 8.2 22:04:02 10° WSW 00:12:18 89° N 00:41:44 10° E visible
20 May 8.7 19:24:23 10° SSW 21:20:14 79° SE 22:13:34 10° ENE visible
21 May 7.7 00:45:08 10° W 02:30:25 81° SSW 02:47:18 10° SE visible
21 May 8.3 21:41:11 10° WSW 23:49:57 89° N 00:21:26 10° E visible
22 May 7.1 03:36:38 10° WNW 04:37:29 48° WSW 04:49:57 10° S visible
22 May 8.7 19:03:06 10° SSW 20:56:48 77° SE 21:52:59 10° ENE visible
23 May 7.7 00:19:51 10° W 02:09:19 82° SSW 02:27:12 10° SE visible
